GW0525 Weather Reports


time (UTC)temp
F
wind
direction
speed
knots
gust
knots
rain 1hr
in
rain 24hr
in
rain mn
in
humidity
%
barometer
mb
20260504044604 57 347 14.8 20.9 0.00 0.00 0.00 39 1004.7
20260504043101 58 28 18.2 22.6 0.00 0.00 0.00 38 1004.7
20260504041600 59 22 20.0 26.1 0.00 0.00 0.00 38 1004.5
20260504040100 60 352 21.7 33.0 0.00 0.00 0.00 36 1004.3
20260504034614 62 355 30.4 38.2 0.00 0.00 0.00 34 1003.6
20260504033101 62 322 11.3 16.5 0.00 0.00 0.00 35 1003.2
20260504031559 62 316 11.3 15.6 0.00 0.00 0.00 35 1003.2
20260504030058 63 329 11.3 24.3 0.00 0.00 0.00 34 1003.1
20260504024601 63 323 10.4 17.4 0.00 0.00 0.00 33 1003.0
20260504023100 65 331 12.2 19.1 0.00 0.00 0.00 32 1002.9
20260504021559 66 323 15.6 22.6 0.00 0.00 0.00 30 1002.9
20260504020100 67 316 13.9 20.9 0.00 0.00 0.00 25 1002.8
20260504014619 69 294 17.4 24.3 0.00 0.00 0.00 22 1002.7
20260504013104 69 307 14.8 26.1 0.00 0.00 0.00 23 1002.8
20260504011605 70 292 17.4 26.9 0.00 0.00 0.00 22 1002.8
20260504010101 70 321 16.5 26.1 0.00 0.00 0.00 21 1002.9
20260504004559 70 304 16.5 23.5 0.00 0.00 0.00 26 1003.0
20260504003101 70 298 9.6 18.2 0.00 0.00 0.00 26 1003.1
20260504001623 71 292 16.5 26.1 0.00 0.00 0.00 25 1003.5
20260504000059 72 289 17.4 28.7 0.00 0.00 0.00 24 1003.5
20260503234600 72 273 17.4 24.3 0.00 0.00 0.00 24 1003.7
20260503233102 72 284 17.4 29.5 0.00 0.00 0.00 23 1003.9
20260503231600 72 286 18.2 26.9 0.00 0.00 0.00 21 1004.3
20260503230106 71 291 16.5 26.1 0.00 0.00 0.00 21 1004.5
20260503224600 72 286 15.6 27.8 0.00 0.00 0.00 21 1004.8
20260503223100 71 306 18.2 27.8 0.00 0.00 0.00 20 1005.3
20260503221559 72 287 18.2 26.1 0.00 0.00 0.00 20 1005.5
20260503220105 71 300 18.2 26.9 0.00 0.00 0.00 19 1005.6
20260503214559 71 275 20.9 26.1 0.00 0.00 0.00 20 1005.7
20260503213114 72 298 18.2 26.9 0.00 0.00 0.00 21 1005.8
20260503211600 71 291 16.5 27.8 0.00 0.00 0.00 22 1006.1
20260503210105 71 290 19.1 26.9 0.00 0.00 0.00 25 1006.3
20260503204559 71 288 13.9 28.7 0.00 0.00 0.00 25 1006.4
20260503203104 72 265 20.9 28.7 0.00 0.00 0.00 24 1006.6
20260503201601 71 244 20.9 29.5 0.00 0.00 0.00 26 1006.9
20260503200104 71 277 19.1 26.9 0.00 0.00 0.00 27 1007.3
20260503194604 70 251 15.6 27.8 0.00 0.00 0.00 28 1007.5
20260503193112 71 246 16.5 26.9 0.00 0.00 0.00 29 1007.8
20260503191609 70 253 20.9 29.5 0.00 0.00 0.00 30 1008.1
20260503190107 69 257 15.6 26.9 0.00 0.00 0.00 29 1008.4
20260503184611 69 289 18.2 26.1 0.00 0.00 0.00 31 1008.8
20260503183111 68 267 17.4 26.9 0.00 0.00 0.00 30 1009.3
20260503181610 68 261 15.6 26.1 0.00 0.00 0.00 31 1009.5
20260503180105 67 257 19.1 29.5 0.00 0.00 0.00 32 1009.7
20260503174600 67 236 18.2 27.8 0.00 0.00 0.00 32 1010.2
20260503173106 67 271 15.6 25.2 0.00 0.00 0.00 32 1010.6
20260503171601 67 290 17.4 25.2 0.00 0.00 0.00 32 1011.1
20260503090108 47 253 2.6 4.3 0.00 0.00 0.00 47 1014.5
20260503081630 49 246 4.3 6.1 0.00 0.00 0.00 44 1014.6
20260503080117 47 250 3.5 4.3 0.00 0.00 0.00 47 1014.7
20260503071601 48 240 3.5 4.3 0.00 0.00 0.00 46 1014.9
20260503070106 49 232 2.6 3.5 0.00 0.00 0.00 44 1015.0
20260503060104 50 0 0.0 0.0 0.00 0.00 0.00 43 1015.1
20260503054605 50 0 0.0 0.0 0.00 0.00 0.00 43 1015.0
20260503053101 50 0 0.0 0.0 0.00 0.00 0.00 44 1015.1